カタログに戻る

GAOFEN 11

運用中科学SSO
NORAD 43585·PAYLOAD·🇨🇳 China

打ち上げ Jul 31, 2018 から Taiyuan Satellite Launch Center

Loading…

次のパス (今後24時間)

TLE

最新Source: Space-Track

元期: Sep 14, 2026, 22:05 UTC

1 43585U 18063A   26257.92043461  .00012243  00000-0  16650-3 0  9997
2 43585  97.1193 324.6523 0003779  25.1993 334.9448 15.57716297454308

AllMySatでGAOFEN 11をリアルタイム追跡

Download on the App Store